Zurück zum Katalog

COSMOS 1579 COOLANT

LostSSO
NORAD 26648·DEBRIS·🇷🇺 Russia

Gestartet Jun 29, 1984 von Baikonur Cosmodrome

Loading…

Nächste Überflüge (nächste 24 Stunden)

TLE

VeraltetSource: Space-Track

Epoche: Feb 4, 2020, 07:47 UTC

1 26648U 84069V   20035.32496802 -.00001027  00000-0 -50136-3 0  9997
2 26648  98.9332 222.9650 0083892 274.3001 209.8657 14.13795381982744

Verfolge COSMOS 1579 COOLANT in Echtzeit mit AllMySat

Download on the App Store